{"data":{"norad_id":66222,"epoch":"2026-05-24T22:45:32.057280Z","epoch_age_seconds":80242,"freshness":"FRESH","line1":"1 66222U 25244S   26144.94828770  .00016556  00000+0  56971-3 0  9990","line2":"2 66222  53.1571 235.7958 0001187  64.6517 295.4607 15.30207749 33330","mean_motion":15.30207749,"eccentricity":0.0001187,"inclination_deg":53.1571,"raan_deg":235.7958,"arg_perigee_deg":64.6517,"mean_anomaly_deg":295.4607,"bstar":0.00056971,"rev_number":3333,"period_min":94.104869155254,"perigee_km":474.37844225545,"apogee_km":476.00542254401,"semimajor_km":6853.3289323997,"source":"CELESTRAK","updated_at":"2026-05-25T13:38:21.130086Z"}}